{"data":{"norad_id":68927,"epoch":"2026-09-19T23:01:28.066368Z","epoch_age_seconds":62218,"freshness":"FRESH","line1":"1 68927U 26098J   26262.95935262  .00000970  00000+0  15619-3 0  9996","line2":"2 68927  51.9040 349.0986 0000241 135.1823 224.9159 14.79930276 21656","mean_motion":14.79930276,"eccentricity":2.41e-5,"inclination_deg":51.904,"raan_deg":349.0986,"arg_perigee_deg":135.1823,"mean_anomaly_deg":224.9159,"bstar":0.00015619,"rev_number":2165,"period_min":97.301881267817,"perigee_km":629.37534306358,"apogee_km":629.71311329877,"semimajor_km":7007.6812281812,"source":"CELESTRAK","updated_at":"2026-09-20T09:00:24.554865Z"}}